This demonstration page uses our WeatherBlox Daily Observations layout. Learn more.

39.92423, -83.80882

Hourly Observations for April 4, 2020

Temp ( °F °C ) Dew Point ( °F °C ) Humidity (%) Winds ( mph kmh ) Pressure ( in mb ) Visibility ( mi km ) Precip ( " mm )
12:56 am 00:56 Clear 46 7.8 40 4.4 79 79 E 3 6 30.04 1017 10 16.0934 0 0
1:56 am 01:56 Clear 45 7.2 40 4.4 83 83 Calm 30.03 1017 10 16.0934 0 0
2:56 am 02:56 Clear 40 4.4 39 3.9 97 97 NE 3 6 30.03 1017 9 14.48406 0 0
3:56 am 03:56 Clear 41 5 40 4.4 96 96 E 3 6 30.03 1017 10 16.0934 0 0
4:56 am 04:56 Clear 41 5 39 3.9 93 93 Calm 30.03 1017 9 14.48406 0 0
5:56 am 05:56 Cloudy 41 5 37 2.8 86 86 E 5 7 30.03 1017 10 16.0934 0 0
6:56 am 06:56 Cloudy 43 6.1 40 4.4 89 89 E 3 6 30.04 1017 10 16.0934 0 0
7:56 am 07:56 Cloudy 45 7.2 38 3.3 77 77 E 7 11 30.06 1018 10 16.0934 0 0
8:56 am 08:56 Cloudy 50 10 35 1.7 57 57 SE 8 13 30.06 1018 10 16.0934 0 0
9:56 am 09:56 Mostly Cloudy 55 12.8 33 0.6 44 44 S 6 9 30.07 1018 10 16.0934 0 0
10:56 am 10:56 Cloudy 56 13.3 32 0 40 40 SSW 8 13 30.08 1019 10 16.0934 0 0
11:56 am 11:56 Cloudy 57 13.9 34 1.1 42 42 SW 6 9 30.08 1019 10 16.0934 0 0
12:56 pm 12:56 Cloudy 59 15 35 1.7 41 41 SSW 5 7 30.06 1018 10 16.0934 0 0
1:56 pm 13:56 Mostly Cloudy 63 17.2 37 2.8 38 38 VRB 3 6 30.05 1018 10 16.0934 0 0
2:56 pm 14:56 Cloudy 66 18.9 41 5 40 40 Calm 30.02 1017 10 16.0934 0 0
3:56 pm 15:56 Mostly Sunny 68 20 43 6.1 40 40 SW 5 7 29.98 1015 10 16.0934 0 0
4:56 pm 16:56 Sunny 69 20.6 45 7.2 42 42 VRB 5 7 29.97 1015 10 16.0934 0 0
5:56 pm 17:56 Sunny 69 20.6 44 6.7 41 41 WNW 5 7 29.98 1015 10 16.0934 0 0
6:56 pm 18:56 Cloudy 66 18.9 49 9.4 54 54 W 7 11 29.98 1015 10 16.0934 0 0
7:56 pm 19:56 Mostly Cloudy 64 17.8 51 10.6 63 63 NW 9 15 30 1016 10 16.0934 0 0
8:56 pm 20:56 Cloudy 61 16.1 53 11.7 75 75 NNW 12 19 30.02 1017 10 16.0934 0 0
9:56 pm 21:56 Cloudy 56 13.3 50 10 81 81 NNW 12 19 30.04 1017 10 16.0934 0 0
10:56 pm 22:56 Cloudy 54 12.2 49 9.4 83 83 NNW 10 17 30.05 1018 10 16.0934 0 0
11:56 pm 23:56 Cloudy 52 11.1 48 8.9 86 86 NNW 9 15 30.05 1018 10 16.0934 0 0

Powered by AerisWeather